Terminal Aerodrome Forecast
Issued by NWS

Home | Current Version | Previous Version | Graphics & Text | Print | Product List | Glossary On
Versions: 1 2 3 4 5 6 7 8 9 10 11 12 13 14 15 16 17 18 19 20
000
FTUS43 KBIS 160157 AAA
TAFDIK
TAF AMD
KDIK 160157Z 1602/1624 03006KT 6SM BR BKN005 OVC100
     FM160500 VRB04KT 2SM BR BKN010
     FM161200 30004KT 4SM BR BKN020
     FM161600 02005KT P6SM SCT200=

USA.gov is the U.S. government's official web portal to all federal, state and local government web resources and services.